Regional Weather Roundup
Issued by NWS

Home | Current Version | Previous Version | Text Only | Print | Product List | Glossary On
Versions: 1 2 3 4 5 6 7 8 9 10 11 12 13 14 15 16 17 18 19 20 21 22 23 24 25 26 27 28 29 30 31 32 33 34 35 36 37 38 39 40 41 42 43 44 45 46 47 48 49 50
000
ASUS44 KOUN 262210
RWROK

WEATHER ROUNDUP FOR OKLAHOMA
NATIONAL WEATHER SERVICE NORMAN OK
400 PM CST FRI DEC 26 2014

NOTE: "FAIR" INDICATES FEW OR NO CLOUDS BELOW 12,000 FEET WITH NO
      SIGNIFICANT WEATHER AND/OR OBSTRUCTIONS TO VISIBILITY.

OKZ001>007-009>012-014-015-017-262300-
NORTHWEST OKLAHOMA AND THE PANHANDLE

CITY           SKY/WX    TMP DP  RH WIND       PRES   REMARKS
GAGE           CLOUDY    33  27  78 N12       29.93F WCI  24
ENID/WOODRING  CLOUDY    46  36  66 NW17G24   29.89R
$$

OKZ016-021>023-033>039-044-045-262300-
SOUTHWEST OKLAHOMA

CITY           SKY/WX    TMP DP  RH WIND       PRES   REMARKS
LAWTON/REGL    MOSUNNY   62  45  53 S8        29.85R
LAWTON/FT SILL PTSUNNY   62  46  56 S7        29.84R
FREDERICK      SUNNY     63  42  46 S7        29.83R
CLINTON        SUNNY     47  31  53 N16       29.92R
HOBART         SUNNY     52  34  50 N17       29.90R
ALTUS AFB      SUNNY     58  37  45 N13       29.89R
$$

OKZ018>020-024>031-262300-
CENTRAL OKLAHOMA

CITY           SKY/WX    TMP DP  RH WIND       PRES   REMARKS
OKLAHOMA CITY  PTSUNNY   53  38  56 N12       29.87R
OKC/WILEY POST PTSUNNY   52  37  56 N12       29.89R
OKC/TINKER AFB CLOUDY    59  49  68 S8        29.86R
STILLWATER     CLOUDY    50  38  63 NW9       29.89R
GUTHRIE        CLOUDY    51  38  60 N6        29.89R
$$

OKZ008-013-054>072-262300-
NORTHEAST OKLAHOMA

CITY           SKY/WX    TMP DP  RH WIND       PRES   REMARKS
TULSA          DRIZZLE   56  51  84 S12       29.88R
TULSA/JONES    CLOUDY    56  49  77 VRB7      29.90R
PONCA CITY     CLOUDY    49  37  63 NW7       29.90R
BARTLESVILLE   CLOUDY    57  48  72 S10       29.89R
MUSKOGEE       LGT RAIN  54  51  90 SE7       29.93R FOG
$$

OKZ032-040>043-046>053-073>077-262300-
SOUTH CENTRAL/SOUTHEAST OKLAHOMA

CITY           SKY/WX    TMP DP  RH WIND       PRES   REMARKS
ARDMORE/DWNTWN CLOUDY    59  54  82 S8        29.87S
MCALESTER      CLOUDY    56  52  86 VRB7      29.92R
$$



USA.gov is the U.S. government's official web portal to all federal, state and local government web resources and services.